CW7536 Weather Reports


Display with metric or nautical units.
time (UTC)temp
F
wind
direction
speed
MPH
gust
MPH
rain 1hr
in
rain 24hr
in
rain mn
in
humidity
%
barometer
mb
20260506140046 68 264 2.0 8.0 0.00 3.92 2.78 32 1008.9
20260506134543 67 234 2.0 11.0 0.00 3.92 2.78 31 1009.2
20260506133037 67 254 3.0 9.0 0.00 3.92 2.78 25 1009.1
20260506131545 66 226 1.0 8.0 0.00 3.92 2.78 19 1009.1
20260506130037 66 262 2.0 10.0 0.00 3.92 2.78 19 1009.3
20260506124523 65 269 1.0 9.0 0.00 3.92 2.78 10 1008.9
20260506123019 65 233 1.0 7.0 0.00 3.92 2.78 7 1008.9
20260506121516 65 294 1.0 7.0 0.00 3.92 2.78 6 1009.0
20260506120019 65 276 1.0 7.0 0.00 3.92 2.78 6 1009.2
20260506114520 65 261 1.0 3.0 0.00 3.92 2.78 2 1009.4
20260506113020 64 266 2.0 6.0 0.00 3.92 2.78 1 1009.2
20260506111511 64 243 2.0 8.0 0.00 3.92 2.78 1 1009.3
20260506110006 64 255 1.0 8.0 0.00 3.92 2.78 1 1009.3
20260506104501 63 238 1.0 3.0 0.00 3.92 2.78 1 1009.0
20260506103058 63 238 1.0 5.0 0.00 3.92 2.78 1 1009.1
20260506101554 63 236 1.0 5.0 0.00 3.92 2.78 1 1009.1
20260506100049 63 259 2.0 4.0 0.00 3.92 2.78 1 1009.1
20260506094559 63 268 2.0 5.0 0.00 3.92 2.78 1 1008.8
20260506093041 63 264 0.0 4.0 0.00 3.92 2.78 1 1008.9
20260506091535 63 259 2.0 6.0 0.00 3.92 2.78 1 1009.0
20260506090030 63 259 0.0 3.0 0.00 3.92 2.78 1 1009.1
20260506084526 64 276 0.0 7.0 0.00 3.92 2.78 1 1009.1
20260506083022 64 254 1.0 8.0 0.00 3.92 2.78 1 1009.1
20260506081517 64 226 1.0 5.0 0.00 3.92 2.78 1 1009.2
20260506073009 65 271 1.0 5.0 0.00 3.92 2.78 14 1009.1
20260506071510 65 259 1.0 7.0 0.00 3.92 2.78 19 1009.1
20260506061556 66 243 1.0 6.0 0.00 3.92 2.78 36 1009.4
20260506060119 66 278 1.0 6.0 0.00 3.92 2.78 38 1009.4
20260506044549 68 243 1.0 4.0 3.90 4.05 2.78 47 1010.0
20260506043045 68 248 1.0 6.0 3.90 4.05 2.78 48 1010.0
20260506041547 68 259 1.0 5.0 2.96 3.11 1.84 49 1009.9
20260506040042 68 225 1.0 6.0 1.29 1.44 0.17 50 1009.9
20260506034538 68 240 2.0 5.0 0.00 5.67 0.15 50 1009.9
20260506033038 68 266 0.0 6.0 0.00 5.67 0.15 51 1010.0
20260506031537 69 266 1.0 3.0 0.00 5.67 0.15 52 1009.9
20260506030038 70 219 1.0 6.0 0.00 5.67 0.15 52 1009.9
20260506024545 70 295 1.0 11.0 0.00 5.67 0.15 52 1009.7
20260506023036 71 267 1.0 11.0 0.00 5.67 0.15 52 1009.7
20260506021534 72 294 1.0 6.0 0.00 5.67 0.15 51 1009.6
20260506020033 72 215 4.0 12.0 0.00 5.67 0.15 50 1009.6
20260506014537 73 268 3.0 12.0 0.00 5.67 0.15 48 1009.4
20260506013035 74 214 2.0 11.0 0.00 5.67 0.15 46 1009.3
20260506011533 74 280 2.0 6.0 0.00 5.67 0.15 44 1009.1
20260506010034 75 309 3.0 6.0 0.00 5.67 0.15 43 1008.9
20260506004532 75 290 0.0 9.0 0.00 5.67 0.15 43 1008.8
20260506003036 76 246 4.0 8.0 0.00 5.67 0.15 42 1008.6
20260506001536 76 251 3.0 10.0 0.00 5.67 0.15 40 1008.5
20260506000029 77 276 4.0 9.0 0.00 5.67 0.15 37 1008.4
20260505234535 77 249 1.0 6.0 0.00 5.67 0.15 36 1008.3
20260505233028 78 273 1.0 4.0 0.00 5.67 0.15 35 1008.1
20260505231529 78 248 2.0 8.0 0.00 5.67 0.15 33 1008.0
20260505230045 79 261 3.0 12.0 0.00 5.67 0.15 33 1007.9
20260505224526 79 236 3.0 10.0 0.00 5.67 0.15 32 1007.5
20260505223050 80 243 4.0 12.0 0.00 5.67 0.15 31 1007.4
20260505221519 80 218 3.0 13.0 0.00 5.67 0.15 30 1007.4
20260505220031 80 225 5.0 12.0 0.00 5.67 0.15 29 1007.5
20260505214515 80 264 3.0 16.0 0.00 5.67 0.15 30 1007.3
20260505213004 81 274 4.0 11.0 0.00 5.67 0.15 30 1007.1
20260505211601 81 240 4.0 18.0 0.00 5.67 0.15 31 1006.9
20260505210055 81 229 5.0 13.0 0.00 5.67 0.15 31 1006.8
20260505204554 82 250 3.0 8.0 0.00 7.01 0.15 32 1007.0
20260505203047 82 278 4.0 9.0 0.00 7.01 0.15 31 1007.0
20260505201546 81 268 3.0 26.0 0.00 7.01 0.15 32 1007.1
20260505200043 81 245 5.0 15.0 0.00 7.01 0.15 32 1007.2
20260505194533 82 275 5.0 14.0 0.00 7.83 0.15 32 1007.2
20260505193031 82 248 3.0 10.0 0.00 7.83 0.15 32 1007.5
20260505191524 82 228 6.0 14.0 0.00 7.83 0.15 31 1007.7
20260505190024 82 16 5.0 14.0 0.00 7.83 0.15 33 1007.9
20260505184516 82 296 4.0 12.0 0.00 8.11 0.15 33 1008.1
20260505183011 82 269 3.0 13.0 0.00 8.11 0.15 35 1008.3
20260505181507 82 265 4.0 21.0 0.00 8.11 0.15 37 1008.3
20260505180002 82 238 1.0 8.0 0.00 8.74 0.15 38 1008.5
20260505174611 81 282 3.0 10.0 0.00 8.74 0.15 39 1008.5
20260505174527 81 304 4.0 10.0 0.00 8.74 0.15 39 1008.5
20260505173053 81 276 1.0 8.0 0.00 8.74 0.15 40 1008.8
20260505171551 81 154 3.0 9.0 0.00 8.74 0.15 40 1008.9
20260505170044 80 259 2.0 8.0 0.00 8.74 0.15 42 1009.1
20260505164542 80 277 2.0 8.0 0.00 1.07 0.15 41 1009.4
20260505163035 80 264 1.0 5.0 0.00 1.07 0.15 42 1009.6
20260505161530 79 234 1.0 7.0 0.00 1.07 0.15 44 1009.7
20260505153017 76 257 0.0 8.0 0.01 1.15 0.15 47 1010.3
20260505151513 75 268 2.0 5.0 0.02 1.15 0.15 47 1010.5